Home > Weather > Wagga Wagga > Past weeks

Flag for Australia Past Weather in Wagga Wagga, New South Wales, Australia — Yesterday and Last 2 Weeks

Now
32 °F

Clear.


Feels Like: 32 °F
Forecast: 33 / 48 °F
Wind: No wind

Location: Wagga Airport

Current Time: Jun 26, 2016 at 2:02:34 AM

Latest Report: Jun 26, 2016 at 1:00 AM


Visibility: N/A

Pressure: 30.15 "Hg

Humidity: 100%

Dew Point: 32 °F

Location of Wagga WaggaLocation

Past Weather in Wagga Wagga — Graph

°F

Wagga Wagga Temperature Yesterday

Maximum temperature yesterday: 48 °F (at 3:00 PM)
Minimum temperature yesterday: 34 °F (at 11:00 PM)
Average temperature yesterday: 39 °F

High & Low Weather Summary for the Past Weeks

 TemperatureHumidityPressure
High63 °F (Jun 18, 12:00 PM)100% (Jun 12, 3:00 AM)30.66 "Hg (Jun 12, 3:00 AM)
Low32 °F (Jun 26, 1:00 AM)48% (Jun 13, 3:00 PM)29.47 "Hg (Jun 20, 3:00 AM)
Average49 °F84%30.07 "Hg
* Reported Jun 11 1:00 AM — Jun 26 1:00 AM, Wagga Wagga, Weather by CustomWeather, © 2016

Note: Actual official high and low records may vary slightly from our data, if they occured in-between our weather recording intervals... More about our weather records

Advertising

Wagga Wagga Weather History for the Previous 24 Hours

Scroll right to see more
 ConditionsComfort  
Time TempWeatherWind HumidityBarometerVisibility
1:00 AM
Sun, Jun 26
32 °FClear.No wind100%30.15 "HgN/A
12:00 AM34 °FClear.No wind100%30.18 "HgN/A
11:00 PM
Sat, Jun 25
34 °FClear.No wind100%30.18 "HgN/A
10:00 PM36 °FClear.No wind100%30.18 "HgN/A
9:00 PM36 °FClear.1 mph100%30.18 "HgN/A
8:00 PM37 °FClear.No wind93%30.18 "HgN/A
7:00 PM39 °FClear.No wind87%30.18 "HgN/A
6:00 PM41 °FClear.2 mph87%30.18 "HgN/A
5:00 PM43 °FClear.6 mph81%30.15 "HgN/A
4:00 PM46 °FScattered clouds.10 mph66%30.15 "HgN/A
3:00 PM48 °FScattered clouds.8 mph62%30.15 "HgN/A
2:00 PM46 °FPartly sunny.9 mph66%30.18 "HgN/A
1:00 PM45 °FScattered clouds.8 mph71%30.18 "HgN/A
12:00 PM41 °FOvercast.7 mph81%30.18 "HgN/A
11:00 AM41 °FOvercast.5 mph81%30.21 "HgN/A
9:59 AM39 °FBroken clouds.6 mph81%30.21 "HgN/A
9:00 AM39 °FScattered clouds.6 mph87%30.18 "HgN/A
8:00 AM36 °FPartly sunny.5 mph93%30.18 "HgN/A
7:00 AM36 °FScattered clouds.3 mph87%30.15 "HgN/A
6:00 AM36 °FPassing clouds.6 mph93%30.12 "HgN/A
5:00 AM37 °FOvercast.6 mph87%30.09 "HgN/A
4:02 AM37 °FPassing clouds.8 mph87%30.09 "HgN/A
3:00 AM37 °FClear.17 mph87%30.07 "HgN/A
2:00 AM37 °FClear.9 mph87%30.07 "HgN/A
Weather by CustomWeather, © 2016

See weather overviewHow to use our weather pages